| time (UTC) | temp F | wind direction | speed MPH | gust MPH | rain 1hr in | rain 24hr in | rain mn in | humidity % | barometer mb |
| 20260505153240 | 57 | 298 | 5.0 | 10.0 | 0.00 | 0.01 | 0.00 | 20 | 1014.0 |
| 20260505152739 | 57 | 324 | 4.0 | 6.0 | 0.00 | 0.01 | 0.00 | 17 | 1014.0 |
| 20260505151739 | 56 | 277 | 0.0 | 4.0 | 0.00 | 0.01 | 0.00 | 14 | 1014.1 |
| 20260505151239 | 56 | 279 | 0.0 | 4.0 | 0.00 | 0.01 | 0.00 | 14 | 1013.8 |
| 20260505150739 | 55 | 285 | 0.0 | 3.0 | 0.00 | 0.01 | 0.00 | 13 | 1013.7 |
| 20260505150239 | 55 | 284 | 1.0 | 3.0 | 0.00 | 0.01 | 0.00 | 13 | 1013.7 |
| 20260505140238 | 49 | 292 | 0.0 | 0.0 | 0.00 | 0.01 | 0.00 | 15 | 1013.8 |
| 20260505130237 | 49 | 301 | 0.0 | 0.0 | 0.00 | 0.01 | 0.00 | 15 | 1013.6 |
| 20260505124737 | 49 | 301 | 0.0 | 0.0 | 0.00 | 0.01 | 0.00 | 15 | 1013.7 |
| 20260505124237 | 49 | 301 | 0.0 | 0.0 | 0.00 | 0.01 | 0.00 | 15 | 1013.7 |
| 20260505123737 | 49 | 301 | 0.0 | 0.0 | 0.00 | 0.01 | 0.00 | 15 | 1013.7 |
| 20260505122738 | 48 | 300 | 0.0 | 0.0 | 0.00 | 0.01 | 0.00 | 15 | 1013.6 |
| 20260505122237 | 48 | 301 | 0.0 | 0.0 | 0.00 | 0.01 | 0.00 | 15 | 1013.6 |
| 20260505121737 | 48 | 301 | 0.0 | 0.0 | 0.00 | 0.01 | 0.00 | 15 | 1013.7 |
| 20260505121237 | 48 | 300 | 0.0 | 0.0 | 0.00 | 0.01 | 0.00 | 15 | 1013.6 |
| 20260505120736 | 48 | 301 | 0.0 | 0.0 | 0.00 | 0.01 | 0.00 | 15 | 1013.6 |
| 20260505120236 | 48 | 301 | 0.0 | 0.0 | 0.00 | 0.01 | 0.00 | 15 | 1013.6 |
| 20260505115736 | 48 | 300 | 0.0 | 0.0 | 0.00 | 0.01 | 0.00 | 16 | 1013.7 |
| 20260505115236 | 48 | 300 | 0.0 | 0.0 | 0.00 | 0.01 | 0.00 | 16 | 1013.6 |
| 20260505114737 | 48 | 301 | 0.0 | 0.0 | 0.00 | 0.01 | 0.00 | 16 | 1013.6 |
| 20260505114236 | 48 | 301 | 0.0 | 0.0 | 0.00 | 0.01 | 0.00 | 16 | 1013.6 |
| 20260505113236 | 48 | 300 | 0.0 | 0.0 | 0.00 | 0.01 | 0.00 | 16 | 1013.6 |
| 20260505112736 | 48 | 301 | 0.0 | 0.0 | 0.00 | 0.01 | 0.00 | 16 | 1013.7 |
| 20260505112236 | 48 | 301 | 0.0 | 0.0 | 0.00 | 0.01 | 0.00 | 16 | 1013.6 |
| 20260505111736 | 48 | 300 | 0.0 | 0.0 | 0.00 | 0.01 | 0.00 | 16 | 1013.6 |
| 20260505111236 | 48 | 301 | 0.0 | 0.0 | 0.00 | 0.01 | 0.00 | 17 | 1013.6 |
| 20260505110737 | 48 | 301 | 0.0 | 0.0 | 0.00 | 0.01 | 0.00 | 17 | 1013.6 |
| 20260505110236 | 48 | 301 | 0.0 | 0.0 | 0.00 | 0.01 | 0.00 | 17 | 1013.6 |
| 20260505101735 | 50 | 300 | 0.0 | 0.0 | 0.00 | 0.01 | 0.00 | 16 | 1013.6 |
| 20260505101235 | 50 | 301 | 0.0 | 0.0 | 0.00 | 0.01 | 0.00 | 16 | 1013.7 |
| 20260505100735 | 50 | 301 | 0.0 | 0.0 | 0.00 | 0.01 | 0.00 | 16 | 1013.7 |
| 20260505095735 | 49 | 301 | 0.0 | 0.0 | 0.00 | 0.01 | 0.00 | 17 | 1013.8 |
| 20260505094735 | 49 | 301 | 0.0 | 0.0 | 0.00 | 0.01 | 0.00 | 17 | 1013.9 |
| 20260505094235 | 49 | 300 | 0.0 | 0.0 | 0.00 | 0.01 | 0.00 | 17 | 1013.9 |
| 20260505093734 | 49 | 301 | 0.0 | 0.0 | 0.00 | 0.01 | 0.00 | 18 | 1014.0 |
| 20260505093234 | 49 | 301 | 0.0 | 0.0 | 0.00 | 0.01 | 0.00 | 18 | 1014.0 |
| 20260505092734 | 49 | 301 | 0.0 | 0.0 | 0.00 | 0.01 | 0.00 | 18 | 1014.0 |
| 20260505091734 | 50 | 301 | 0.0 | 0.0 | 0.00 | 0.01 | 0.00 | 18 | 1014.2 |
| 20260505091234 | 50 | 301 | 0.0 | 0.0 | 0.00 | 0.01 | 0.00 | 18 | 1014.2 |
| 20260505090735 | 50 | 300 | 0.0 | 0.0 | 0.00 | 0.01 | 0.00 | 18 | 1014.3 |
| 20260505090234 | 50 | 300 | 0.0 | 0.0 | 0.00 | 0.01 | 0.00 | 19 | 1014.3 |
| 20260505085733 | 50 | 301 | 0.0 | 0.0 | 0.00 | 0.01 | 0.00 | 19 | 1014.2 |
| 20260505085234 | 50 | 301 | 0.0 | 0.0 | 0.00 | 0.01 | 0.00 | 19 | 1014.3 |
| 20260505084734 | 50 | 300 | 0.0 | 0.0 | 0.00 | 0.01 | 0.00 | 19 | 1014.4 |
| 20260505084233 | 50 | 301 | 0.0 | 0.0 | 0.00 | 0.01 | 0.00 | 19 | 1014.4 |
| 20260505083734 | 50 | 301 | 0.0 | 0.0 | 0.00 | 0.01 | 0.00 | 19 | 1014.4 |
| 20260505083234 | 50 | 301 | 0.0 | 0.0 | 0.00 | 0.01 | 0.00 | 19 | 1014.5 |
| 20260505082733 | 51 | 300 | 0.0 | 0.0 | 0.00 | 0.01 | 0.00 | 19 | 1014.4 |
| 20260505082233 | 51 | 301 | 0.0 | 0.0 | 0.00 | 0.01 | 0.00 | 19 | 1014.5 |
| 20260505081233 | 51 | 301 | 0.0 | 0.0 | 0.00 | 0.01 | 0.00 | 18 | 1014.6 |
| 20260505080233 | 51 | 300 | 0.0 | 0.0 | 0.00 | 0.01 | 0.00 | 18 | 1014.6 |
| 20260505075733 | 51 | 301 | 0.0 | 0.0 | 0.00 | 0.01 | 0.00 | 18 | 1014.7 |
| 20260505075233 | 51 | 300 | 0.0 | 0.0 | 0.00 | 0.01 | 0.00 | 19 | 1014.7 |
| 20260505074734 | 50 | 301 | 0.0 | 0.0 | 0.00 | 0.01 | 0.00 | 20 | 1014.7 |
| 20260505074233 | 50 | 301 | 0.0 | 0.0 | 0.00 | 0.01 | 0.00 | 20 | 1014.7 |
| 20260505073733 | 50 | 301 | 0.0 | 0.0 | 0.00 | 0.01 | 0.00 | 20 | 1014.8 |
| 20260505073234 | 50 | 300 | 0.0 | 0.0 | 0.00 | 0.01 | 0.00 | 21 | 1014.7 |
| 20260505072733 | 50 | 300 | 0.0 | 0.0 | 0.00 | 0.01 | 0.00 | 21 | 1014.7 |
| 20260505071733 | 50 | 300 | 0.0 | 0.0 | 0.00 | 0.01 | 0.00 | 22 | 1014.6 |
| 20260505071232 | 50 | 301 | 0.0 | 0.0 | 0.00 | 0.01 | 0.00 | 22 | 1014.7 |
| 20260505070732 | 50 | 301 | 0.0 | 0.0 | 0.00 | 0.01 | 0.00 | 23 | 1014.6 |
| 20260505070232 | 50 | 301 | 0.0 | 0.0 | 0.00 | 0.01 | 0.00 | 24 | 1014.5 |
| 20260505065732 | 50 | 300 | 0.0 | 0.0 | 0.00 | 0.01 | 0.01 | 24 | 1014.5 |
| 20260505065232 | 50 | 300 | 0.0 | 0.0 | 0.00 | 0.01 | 0.01 | 25 | 1014.3 |
| 20260505064231 | 50 | 301 | 0.0 | 0.0 | 0.00 | 0.01 | 0.01 | 26 | 1014.4 |
| 20260505063731 | 50 | 301 | 0.0 | 0.0 | 0.00 | 0.01 | 0.01 | 26 | 1014.5 |
| 20260505063231 | 50 | 300 | 0.0 | 0.0 | 0.00 | 0.01 | 0.01 | 28 | 1014.4 |
| 20260505062731 | 50 | 301 | 0.0 | 0.0 | 0.00 | 0.01 | 0.01 | 28 | 1014.3 |
| 20260505062231 | 50 | 301 | 0.0 | 0.0 | 0.00 | 0.01 | 0.01 | 29 | 1014.3 |
| 20260505061731 | 50 | 300 | 0.0 | 0.0 | 0.00 | 0.01 | 0.01 | 29 | 1014.3 |
| 20260505061231 | 50 | 300 | 0.0 | 0.0 | 0.00 | 0.01 | 0.01 | 30 | 1014.3 |
| 20260505060731 | 50 | 301 | 0.0 | 0.0 | 0.00 | 0.01 | 0.01 | 30 | 1014.4 |
| 20260505060231 | 50 | 301 | 0.0 | 0.0 | 0.00 | 0.01 | 0.01 | 31 | 1014.4 |
| 20260505055731 | 51 | 301 | 0.0 | 0.0 | 0.00 | 0.01 | 0.01 | 32 | 1014.4 |
| 20260505055231 | 51 | 301 | 0.0 | 0.0 | 0.00 | 0.01 | 0.01 | 32 | 1014.5 |
| 20260505054731 | 51 | 301 | 0.0 | 0.0 | 0.00 | 0.01 | 0.01 | 33 | 1014.4 |
| 20260505054231 | 51 | 301 | 0.0 | 0.0 | 0.00 | 0.01 | 0.01 | 33 | 1014.4 |
| 20260505053731 | 51 | 300 | 0.0 | 0.0 | 0.00 | 0.01 | 0.01 | 34 | 1014.4 |
| 20260505052231 | 52 | 300 | 0.0 | 0.0 | 0.00 | 0.01 | 0.01 | 37 | 1014.7 |
| 20260505051731 | 52 | 300 | 0.0 | 0.0 | 0.00 | 0.01 | 0.01 | 38 | 1014.7 |
| 20260505051230 | 52 | 301 | 0.0 | 0.0 | 0.00 | 0.01 | 0.01 | 39 | 1014.7 |
| 20260505050730 | 53 | 301 | 0.0 | 0.0 | 0.00 | 0.01 | 0.01 | 39 | 1014.7 |
| 20260505041729 | 56 | 301 | 0.0 | 0.0 | 0.00 | 0.01 | 0.01 | 45 | 1014.5 |
| 20260505041229 | 56 | 301 | 0.0 | 1.0 | 0.00 | 0.01 | 0.01 | 46 | 1014.5 |
| 20260505040729 | 56 | 300 | 0.0 | 3.0 | 0.00 | 0.01 | 0.01 | 46 | 1014.3 |
| 20260505040229 | 56 | 300 | 0.0 | 5.0 | 0.00 | 0.01 | 0.01 | 46 | 1014.3 |
| 20260505035229 | 57 | 301 | 0.0 | 4.0 | 0.00 | 0.01 | 0.01 | 46 | 1014.2 |
| 20260505034729 | 57 | 300 | 0.0 | 6.0 | 0.00 | 0.01 | 0.01 | 47 | 1014.2 |
| 20260505033729 | 57 | 298 | 1.0 | 8.0 | 0.00 | 0.01 | 0.01 | 46 | 1014.1 |
| 20260505033229 | 57 | 311 | 3.0 | 8.0 | 0.00 | 0.01 | 0.01 | 46 | 1014.0 |
| 20260505032729 | 58 | 311 | 4.0 | 7.0 | 0.00 | 0.01 | 0.01 | 46 | 1014.0 |
| 20260505032229 | 58 | 299 | 0.0 | 5.0 | 0.00 | 0.01 | 0.01 | 46 | 1013.8 |
| 20260505031729 | 58 | 301 | 3.0 | 5.0 | 0.00 | 0.01 | 0.01 | 46 | 1013.7 |
| 20260505031229 | 58 | 265 | 0.0 | 4.0 | 0.00 | 0.01 | 0.01 | 46 | 1013.7 |
| 20260505030729 | 58 | 265 | 1.0 | 7.0 | 0.00 | 0.01 | 0.01 | 46 | 1013.6 |
| 20260505025228 | 59 | 280 | 0.0 | 5.0 | 0.00 | 0.01 | 0.01 | 46 | 1013.4 |
| 20260505024729 | 59 | 281 | 0.0 | 5.0 | 0.00 | 0.01 | 0.01 | 46 | 1013.3 |
| 20260505024228 | 59 | 290 | 1.0 | 5.0 | 0.00 | 0.01 | 0.01 | 46 | 1013.2 |
| 20260505023728 | 59 | 290 | 0.0 | 4.0 | 0.00 | 0.01 | 0.01 | 46 | 1013.2 |
| 20260505023228 | 59 | 290 | 0.0 | 7.0 | 0.00 | 0.01 | 0.01 | 46 | 1013.1 |
| 20260505022228 | 60 | 250 | 2.0 | 5.0 | 0.00 | 0.01 | 0.01 | 47 | 1013.2 |
| 20260505021728 | 60 | 250 | 0.0 | 4.0 | 0.00 | 0.01 | 0.01 | 47 | 1013.2 |
| 20260505021228 | 60 | 248 | 0.0 | 6.0 | 0.00 | 0.01 | 0.01 | 47 | 1013.2 |
| 20260505020228 | 61 | 198 | 0.0 | 5.0 | 0.00 | 0.01 | 0.01 | 47 | 1013.2 |
| 20260505015728 | 61 | 277 | 0.0 | 5.0 | 0.00 | 0.01 | 0.01 | 47 | 1013.0 |
| 20260505015228 | 62 | 283 | 0.0 | 14.0 | 0.00 | 0.01 | 0.01 | 46 | 1013.0 |
| 20260505014728 | 62 | 300 | 1.0 | 14.0 | 0.00 | 0.01 | 0.01 | 46 | 1013.1 |
| 20260505014227 | 62 | 253 | 1.0 | 7.0 | 0.00 | 0.01 | 0.01 | 46 | 1013.0 |
| 20260505013727 | 63 | 283 | 0.0 | 11.0 | 0.00 | 0.01 | 0.01 | 46 | 1013.0 |
| 20260505013227 | 63 | 302 | 6.0 | 11.0 | 0.00 | 0.01 | 0.01 | 46 | 1013.1 |
| 20260505012727 | 62 | 325 | 0.0 | 6.0 | 0.00 | 0.01 | 0.01 | 46 | 1013.1 |
| 20260505012227 | 62 | 302 | 0.0 | 6.0 | 0.00 | 0.01 | 0.01 | 46 | 1013.2 |
| 20260505011727 | 62 | 304 | 2.0 | 7.0 | 0.00 | 0.01 | 0.01 | 46 | 1013.2 |
| 20260505011227 | 63 | 303 | 0.0 | 7.0 | 0.00 | 0.01 | 0.01 | 46 | 1013.2 |
| 20260505010227 | 63 | 251 | 0.0 | 9.0 | 0.00 | 0.01 | 0.01 | 46 | 1013.2 |
| 20260505005727 | 63 | 279 | 0.0 | 9.0 | 0.00 | 0.01 | 0.01 | 45 | 1013.2 |
| 20260505005227 | 63 | 304 | 1.0 | 9.0 | 0.00 | 0.01 | 0.01 | 45 | 1013.1 |
| 20260505004726 | 63 | 321 | 2.0 | 9.0 | 0.00 | 0.01 | 0.01 | 45 | 1013.1 |
| 20260505004227 | 64 | 321 | 0.0 | 10.0 | 0.00 | 0.01 | 0.01 | 45 | 1013.1 |
| 20260505003726 | 64 | 304 | 3.0 | 10.0 | 0.00 | 0.01 | 0.01 | 44 | 1013.1 |
| 20260505003226 | 65 | 246 | 2.0 | 6.0 | 0.00 | 0.01 | 0.01 | 44 | 1013.1 |
| 20260505002726 | 65 | 289 | 2.0 | 9.0 | 0.00 | 0.01 | 0.01 | 44 | 1013.0 |
| 20260505002226 | 65 | 303 | 0.0 | 11.0 | 0.00 | 0.01 | 0.01 | 43 | 1013.0 |
| 20260505001726 | 65 | 276 | 3.0 | 11.0 | 0.00 | 0.01 | 0.01 | 42 | 1012.9 |
| 20260505001226 | 65 | 268 | 6.0 | 9.0 | 0.00 | 0.01 | 0.01 | 43 | 1012.9 |
| 20260505000726 | 65 | 276 | 4.0 | 6.0 | 0.00 | 0.01 | 0.01 | 43 | 1012.9 |
| 20260505000226 | 65 | 244 | 1.0 | 7.0 | 0.00 | 0.01 | 0.01 | 43 | 1012.9 |
| 20260504235726 | 65 | 261 | 2.0 | 7.0 | 0.00 | 0.01 | 0.01 | 43 | 1012.9 |
| 20260504235226 | 65 | 260 | 3.0 | 7.0 | 0.00 | 0.01 | 0.01 | 43 | 1012.9 |
| 20260504234226 | 65 | 298 | 2.0 | 9.0 | 0.00 | 0.01 | 0.01 | 43 | 1012.9 |
| 20260504233726 | 65 | 310 | 0.0 | 9.0 | 0.00 | 0.01 | 0.01 | 43 | 1013.0 |
| 20260504233225 | 65 | 251 | 7.0 | 9.0 | 0.01 | 0.01 | 0.01 | 43 | 1012.9 |
| 20260504232725 | 64 | 300 | 2.0 | 9.0 | 0.01 | 0.01 | 0.01 | 42 | 1013.0 |
| 20260504232225 | 64 | 250 | 0.0 | 7.0 | 0.01 | 0.01 | 0.01 | 42 | 1013.0 |
| 20260504231725 | 64 | 248 | 0.0 | 8.0 | 0.01 | 0.01 | 0.01 | 42 | 1013.1 |
| 20260504230726 | 65 | 217 | 1.0 | 5.0 | 0.01 | 0.01 | 0.01 | 42 | 1013.1 |
| 20260504230225 | 65 | 140 | 4.0 | 5.0 | 0.01 | 0.01 | 0.01 | 41 | 1013.2 |
| 20260504225725 | 65 | 198 | 0.0 | 4.0 | 0.01 | 0.01 | 0.01 | 41 | 1013.2 |
| 20260504225225 | 65 | 187 | 0.0 | 5.0 | 0.01 | 0.01 | 0.01 | 41 | 1013.3 |
| 20260504224725 | 64 | 261 | 1.0 | 5.0 | 0.01 | 0.01 | 0.01 | 41 | 1013.3 |
| 20260504224226 | 64 | 217 | 0.0 | 5.0 | 0.01 | 0.01 | 0.01 | 40 | 1013.3 |
| 20260504223224 | 64 | 217 | 0.0 | 5.0 | 0.00 | 0.00 | 0.00 | 41 | 1013.4 |
| 20260504222725 | 64 | 215 | 0.0 | 5.0 | 0.00 | 0.00 | 0.00 | 42 | 1013.6 |
| 20260504222224 | 65 | 213 | 0.0 | 3.0 | 0.00 | 0.00 | 0.00 | 42 | 1013.6 |
| 20260504221724 | 65 | 225 | 0.0 | 7.0 | 0.00 | 0.00 | 0.00 | 42 | 1013.8 |
| 20260504221225 | 65 | 226 | 0.0 | 7.0 | 0.00 | 0.00 | 0.00 | 43 | 1013.8 |
| 20260504220224 | 66 | 281 | 0.0 | 5.0 | 0.00 | 0.00 | 0.00 | 43 | 1013.9 |
| 20260504215725 | 67 | 281 | 2.0 | 5.0 | 0.00 | 0.00 | 0.00 | 44 | 1013.9 |
| 20260504215224 | 67 | 244 | 4.0 | 6.0 | 0.00 | 0.00 | 0.00 | 43 | 1013.9 |
| 20260504214724 | 66 | 175 | 0.0 | 6.0 | 0.00 | 0.00 | 0.00 | 43 | 1013.9 |
| 20260504214224 | 66 | 227 | 0.0 | 2.0 | 0.00 | 0.00 | 0.00 | 43 | 1013.8 |
| 20260504213724 | 65 | 233 | 0.0 | 2.0 | 0.00 | 0.00 | 0.00 | 44 | 1014.0 |
| 20260504213223 | 65 | 260 | 0.0 | 2.0 | 0.00 | 0.00 | 0.00 | 44 | 1014.1 |
| 20260504212724 | 65 | 260 | 0.0 | 4.0 | 0.00 | 0.00 | 0.00 | 44 | 1014.1 |
| 20260504212223 | 66 | 260 | 1.0 | 4.0 | 0.00 | 0.00 | 0.00 | 44 | 1014.1 |
| 20260504211724 | 67 | 303 | 2.0 | 9.0 | 0.00 | 0.00 | 0.00 | 45 | 1014.0 |
| 20260504210223 | 67 | 321 | 0.0 | 5.0 | 0.00 | 0.00 | 0.00 | 47 | 1014.2 |
| 20260504205723 | 68 | 271 | 3.0 | 5.0 | 0.00 | 0.00 | 0.00 | 46 | 1014.2 |
| 20260504204723 | 68 | 310 | 0.0 | 8.0 | 0.00 | 0.00 | 0.00 | 46 | 1014.1 |
| 20260504204223 | 69 | 292 | 3.0 | 6.0 | 0.00 | 0.00 | 0.00 | 47 | 1014.1 |
| 20260504203723 | 69 | 291 | 0.0 | 7.0 | 0.00 | 0.00 | 0.00 | 48 | 1014.0 |
| 20260504203223 | 69 | 232 | 0.0 | 7.0 | 0.00 | 0.00 | 0.00 | 46 | 1014.0 |
| 20260504202723 | 69 | 237 | 2.0 | 7.0 | 0.00 | 0.00 | 0.00 | 46 | 1013.9 |
| 20260504202223 | 70 | 217 | 0.0 | 7.0 | 0.00 | 0.00 | 0.00 | 46 | 1013.9 |
| 20260504201723 | 70 | 175 | 0.0 | 6.0 | 0.00 | 0.00 | 0.00 | 46 | 1013.8 |
| 20260504200723 | 72 | 209 | 3.0 | 11.0 | 0.00 | 0.00 | 0.00 | 44 | 1013.8 |
| 20260504200222 | 72 | 307 | 0.0 | 11.0 | 0.00 | 0.00 | 0.00 | 42 | 1013.8 |
| 20260504195722 | 72 | 165 | 0.0 | 11.0 | 0.00 | 0.00 | 0.00 | 43 | 1013.8 |
| 20260504195222 | 72 | 285 | 2.0 | 11.0 | 0.00 | 0.00 | 0.00 | 42 | 1013.7 |
| 20260504194223 | 71 | 169 | 3.0 | 7.0 | 0.00 | 0.00 | 0.00 | 44 | 1014.0 |
| 20260504193722 | 70 | 193 | 2.0 | 6.0 | 0.00 | 0.00 | 0.00 | 43 | 1014.0 |
| 20260504193222 | 70 | 207 | 3.0 | 6.0 | 0.00 | 0.00 | 0.00 | 44 | 1014.0 |
| 20260504192722 | 70 | 217 | 0.0 | 4.0 | 0.00 | 0.00 | 0.00 | 43 | 1014.1 |
| 20260504192222 | 70 | 267 | 0.0 | 5.0 | 0.00 | 0.00 | 0.00 | 42 | 1014.0 |
| 20260504191222 | 70 | 313 | 3.0 | 9.0 | 0.00 | 0.00 | 0.00 | 41 | 1014.0 |
| 20260504190722 | 69 | 240 | 1.0 | 6.0 | 0.00 | 0.00 | 0.00 | 42 | 1014.0 |
| 20260504185721 | 70 | 310 | 0.0 | 9.0 | 0.00 | 0.00 | 0.00 | 40 | 1014.0 |
| 20260504185222 | 70 | 310 | 3.0 | 9.0 | 0.00 | 0.00 | 0.00 | 41 | 1014.0 |
| 20260504183722 | 69 | 202 | 1.0 | 4.0 | 0.00 | 0.00 | 0.00 | 40 | 1014.3 |
| 20260504182751 | 69 | 200 | 1.0 | 5.0 | 0.00 | 0.00 | 0.00 | 40 | 1014.3 |
| 20260504181751 | 68 | 158 | 0.0 | 6.0 | 0.00 | 0.00 | 0.00 | 40 | 1014.4 |
| 20260504181251 | 68 | 156 | 0.0 | 6.0 | 0.00 | 0.00 | 0.00 | 41 | 1014.4 |
| 20260504180751 | 68 | 125 | 3.0 | 7.0 | 0.00 | 0.00 | 0.00 | 39 | 1014.4 |
| 20260504175751 | 68 | 319 | 2.0 | 5.0 | 0.00 | 0.00 | 0.00 | 39 | 1014.4 |
| 20260504175250 | 68 | 319 | 2.0 | 5.0 | 0.00 | 0.00 | 0.00 | 38 | 1014.4 |
| 20260504174750 | 67 | 326 | 0.0 | 6.0 | 0.00 | 0.00 | 0.00 | 37 | 1014.6 |
| 20260504173751 | 65 | 304 | 1.0 | 4.0 | 0.00 | 0.00 | 0.00 | 37 | 1014.5 |
| 20260504173251 | 65 | 304 | 2.0 | 4.0 | 0.00 | 0.00 | 0.00 | 37 | 1014.5 |
| 20260504171750 | 64 | 306 | 0.0 | 4.0 | 0.00 | 0.00 | 0.00 | 35 | 1014.4 |
| 20260504171250 | 63 | 306 | 0.0 | 4.0 | 0.00 | 0.00 | 0.00 | 35 | 1014.4 |
| 20260504170750 | 63 | 306 | 0.0 | 2.0 | 0.00 | 0.00 | 0.00 | 34 | 1014.5 |
| 20260504170250 | 62 | 306 | 0.0 | 0.0 | 0.00 | 0.00 | 0.00 | 34 | 1014.5 |
| 20260504160250 | 55 | 308 | 0.0 | 0.0 | 0.00 | 0.00 | 0.00 | 23 | 1014.6 |